カタログに戻る

GEESAT 6-09

運用中通信LEO
NORAD 65721·PAYLOAD·🇨🇳 China

打ち上げ Sep 24, 2025 から Yellow Sea Launch Area

Loading…

次のパス (今後24時間)

TLE

最新Source: Space-Track

元期: Sep 14, 2026, 16:42 UTC

1 65721U 25214K   26257.69644141  .00001069  00000-0  15563-3 0  9991
2 65721  49.9841 253.5234 0008147 197.3292 162.7369 14.83565070 52791

AllMySatでGEESAT 6-09をリアルタイム追跡

Download on the App Store